Elmira, NY

10:19 PM EST on December 13, 2019 (GMT -0500)
Elmira-Corning Regional

Weather History for KELM - October, 2019

Change the Weather History Date:

Saturday, October 19, 2019

  Actual Average Record
Temperature  
Mean Temperature 45 °F -  
Max Temperature 61 °F 58 °F 85 °F (1950)
Min Temperature 30 °F 35 °F 15 °F (1974)
Degree Days  
Heating Degree Days 20    
Moisture  
Dew Point 35 °F    
Average Humidity 87    
Maximum Humidity 100    
Minimum Humidity 47    
Precipitation  
Precipitation 0.00 in - - ()
Sea Level Pressure  
Sea Level Pressure 30.06 in    
Wind  
Wind Speed 2 mph (West)    
Max Wind Speed 5 mph    
Max Gust Speed -    
Visibility 5 miles    
Events Fog    
Averages and records for this station are not official NWS values.
T = Trace of Precipitation, MM = Missing Value Source: NWS Daily Summary

Daily Weather History Graph

Daily Weather History Graph

Search for Another Location

Airport or City:

Astronomy

Oct. 19, 2019 Rise Set
Actual Time 7:24 AM EDT 6:19 PM EDT
Civil Twilight 6:56 AM EDT 6:48 PM EDT
Nautical Twilight 6:23 AM EDT 7:20 PM EDT
Astronomical Twilight 5:51 AM EDT 7:53 PM EDT
Moon 10:22 PM EDT (10/19) 12:59 PM EDT (10/19)
Length of Visible Light 11h 52m
Length of Day
10h 55m
Waning Gibbous, 70% of the Moon is Illuminated
Oct 19
Waning Gibbous
Oct 21
Last Quarter
Oct 27
New
Nov 4
First Quarter
Nov 12
Full

Hourly Weather History & Observations

Time (EDT) Temp. Windchill Dew Point Humidity Pressure Visibility Wind Dir Wind Speed Gust Speed Precip Events Conditions
12:53 AM 32.0 °F - 32.0 °F 100% 30.09 in 9.0 mi Calm Calm - N/A   Clear
1:53 AM 34.0 °F 31.0 °F 32.0 °F 92% 30.09 in 10.0 mi SW 3.5 mph - N/A   Clear
2:10 AM 32.0 °F 28.7 °F 30.9 °F 96% 30.07 in 8.0 mi WSW 3.5 mph - N/A   Scattered Clouds
2:23 AM 30.9 °F 27.5 °F 30.0 °F 96% 30.07 in 3.0 mi WSW 3.5 mph - N/A   Mostly Cloudy
2:35 AM 30.9 °F - 30.0 °F 96% 30.06 in 1.5 mi Calm Calm - N/A   Mostly Cloudy
2:38 AM 30.9 °F - 30.0 °F 96% 30.06 in 0.8 mi Calm Calm - N/A   Mist
2:50 AM 30.2 °F - 28.4 °F 93% 30.06 in 0.2 mi Calm Calm - N/A Fog Light Freezing Fog
2:53 AM 30.0 °F - 28.9 °F 96% 30.08 in 0.2 mi Calm Calm - N/A Fog Light Freezing Fog
3:13 AM 30.9 °F - 28.9 °F 92% 30.06 in 0.5 mi Calm Calm - N/A Fog Light Freezing Fog
3:37 AM 32.0 °F 27.5 °F 30.9 °F 96% 30.06 in 0.2 mi West 4.6 mph - N/A Fog Fog
4:53 AM 33.1 °F 30.0 °F 32.0 °F 96% 30.08 in 0.2 mi WNW 3.5 mph - N/A Fog Fog
5:12 AM 33.1 °F 30.0 °F 33.1 °F 100% 30.06 in 0.2 mi West 3.5 mph - N/A Fog Fog
5:53 AM 34.0 °F 29.8 °F 34.0 °F 100% 30.09 in 0.2 mi WSW 4.6 mph - N/A Fog Fog
6:38 AM 34.0 °F 31.0 °F 34.0 °F 100% 30.08 in 0.5 mi West 3.5 mph - N/A Fog Fog
6:53 AM 34.0 °F 29.8 °F 34.0 °F 100% 30.11 in 0.5 mi West 4.6 mph - N/A Fog Fog
7:24 AM 34.0 °F 31.0 °F 34.0 °F 100% 30.09 in 0.5 mi WSW 3.5 mph - N/A Fog Fog
7:51 AM 33.8 °F 30.8 °F 33.8 °F 100% 30.10 in 0.2 mi West 3.5 mph - N/A Fog Fog
7:53 AM 34.0 °F 31.0 °F 34.0 °F 100% 30.12 in 0.2 mi Variable 3.5 mph - N/A Fog Fog
8:53 AM 35.1 °F - 35.1 °F 100% 30.12 in 0.2 mi Calm Calm - N/A Fog Fog
9:27 AM 35.1 °F 32.2 °F 35.1 °F 100% 30.09 in 0.5 mi SW 3.5 mph - N/A Fog Fog
9:53 AM 36.0 °F 32.1 °F 36.0 °F 100% 30.13 in 1.2 mi SW 4.6 mph - N/A   Overcast
10:42 AM 39.0 °F - 37.9 °F 96% 30.10 in 8.0 mi Calm Calm - N/A   Overcast
10:53 AM 39.9 °F - 39.0 °F 97% 30.12 in 10.0 mi Calm Calm - N/A   Mostly Cloudy
11:08 AM 42.1 °F - 39.9 °F 92% 30.09 in 10.0 mi Calm Calm - N/A   Scattered Clouds
11:53 AM 48.0 °F - 41.0 °F 77% 30.10 in 10.0 mi Calm Calm - N/A   Clear
12:53 PM 55.0 °F - 39.9 °F 57% 30.07 in 10.0 mi Calm Calm - N/A   Clear
1:53 PM 57.0 °F - 39.9 °F 53% 30.04 in 10.0 mi Calm Calm - N/A   Clear
2:53 PM 59.0 °F - 39.9 °F 49% 30.02 in 10.0 mi ENE 3.5 mph - N/A   Clear
3:53 PM 60.1 °F - 39.9 °F 47% 30.01 in 10.0 mi ENE 4.6 mph - N/A   Clear
4:53 PM 60.1 °F - 39.9 °F 47% 29.99 in 10.0 mi ENE 4.6 mph - N/A   Clear
5:53 PM 53.1 °F - 41.0 °F 64% 29.98 in 10.0 mi NE 4.6 mph - N/A   Clear
6:53 PM 48.9 °F - 39.0 °F 69% 29.99 in 10.0 mi NNW 3.5 mph - N/A   Clear
7:53 PM 45.0 °F - 39.0 °F 80% 30.00 in 10.0 mi Calm Calm - N/A   Clear
8:53 PM 43.0 °F 41.3 °F 37.0 °F 80% 30.00 in 10.0 mi East 3.5 mph - N/A   Clear
9:53 PM 41.0 °F - 37.9 °F 89% 30.01 in 10.0 mi Calm Calm - N/A   Clear
10:53 PM 37.9 °F - 36.0 °F 93% 30.00 in 10.0 mi Calm Calm - N/A   Clear
11:53 PM 37.0 °F - 35.1 °F 93% 29.98 in 10.0 mi Calm Calm - N/A   Clear